Regional Weather Roundup
Issued by NWS Jackson, KY

Home | Current Version | Previous Version | Graphics & Text | Print | Product List | Glossary On
Versions: 1 2 3 4 5 6 7 8 9 10 11 12 13 14 15 16 17 18 19 20 21 22 23 24 25 26 27
000
ASUS43 KJKL 251010
RWRJKL

EAST KENTUCKY HOURLY WEATHER ROUNDUP
NATIONAL WEATHER SERVICE JACKSON KY
600 AM EDT MON SEP 25 2017

NOTE: "FAIR" INDICATES FEW OR NO CLOUDS BELOW 12,000 FEET WITH
NO SIGNIFICANT WEATHER AND/OR OBSTRUCTIONS TO VISIBILITY.

* THESE REPORTS ARE NOT UNDER NWS QUALITY CONTROL AND MAY NOT
  REPORT WEATHER SUCH AS PRECIPITATION AND FOG.

KYZ079-080-083-085-087-088-110-112-115-119-120-251100
...EASTERN KENTUCKY...

CITY           SKY/WX    TMP DP  RH WIND       PRES   REMARKS
JACKSON        PTCLDY    67  60  78 E3        30.06S
LONDON         CLOUDY    63  61  93 CALM      30.05S
SOMERSET*      CLEAR     59  59 100 CALM      30.06S FOG
MONTICELLO*    FOG       63  63 100 CALM      30.07R VSB 1
WILLIAMSBURG*  CLOUDY    59  59 100 CALM      30.05S VSB<1/4
MIDDLESBORO*   FOG       60  60 100 CALM      30.08S VSB 3/4
HARLAN APT*    CLOUDY    61  61 100 CALM      30.09R VSB 3/4
PIKE CO APT*     N/A     64  64 100 S5        30.07S
BIG SANDY APT* CLOUDY    65  65 100 CALM      30.06S
MOREHEAD APT*  CLOUDY    63  61  94 SE5       30.06S
$$

KYZ035-036-041-042-044-050-067-078-099-251100
...CENTRAL KENTUCKY...

CITY           SKY/WX    TMP DP  RH WIND       PRES   REMARKS
MT STERLING*   PTCLDY    59  57  94 CALM      30.06S
FLEMING/MASON* PTCLDY    60  59  99 CALM      30.06R
DANVILLE*      CLEAR     61  61 100 CALM      30.06R
LEXINGTON      CLEAR     65  59  81 CALM      30.04S
FRANKFORT      CLEAR     62  58  86 CALM      30.02S
LOUISVILLE     PTCLDY    70  63  78 S3        30.02R
LEBANON*         N/A     64  63  94 CALM      30.04S
GLASGOW*       FOG      N/A N/A N/A CALM      30.03R VSB 1/4
BOWLING GREEN  CLEAR     67  67 100 CALM      30.02S FOG
$$

KYZ091>093-OHZ055-061-077-WVZ005-015-034-035-042-251100
...SOUTHERN OHIO/WEST VIRGINIA...

CITY           SKY/WX    TMP DP  RH WIND       PRES   REMARKS
COVINGTON      PTCLDY    64  61  90 CALM      30.04S
COLUMBUS       PTCLDY    67  63  87 N5        30.04S
DAYTON         PTCLDY    65  58  78 CALM      30.06S
WILMINGTON     CLEAR     61  60  97 CALM      30.05R
HUNTINGTON     MOCLDY    62  60  93 E3        30.04R
CHARLESTON     MOCLDY    64  61  90 CALM      30.05S
PINEVILLE*     CLOUDY    58  57  95 MISG      30.15S
BECKLEY        PTCLDY    60  56  86 CALM      30.13R
BLUEFIELD      CLOUDY    62  56  80 E3        30.15S
LOGAN CO APT*    N/A     66  61  82 CALM      30.08S
$$

VAZ002-007-008-TNZ017-027-036-066-071-251100
...SOUTHWEST VIRGINIA/EAST TENNESSEE...

CITY           SKY/WX    TMP DP  RH WIND       PRES   REMARKS
WISE*          MOCLDY    64  54  68 CALM      30.15S
JONESVILLE*      N/A     57  55  94 CALM      30.10R
ABINGDON*      PTCLDY    63  57  82 E6        30.11S
BRISTOL        PTCLDY    58  58 100 N5        30.08S
MORRISTOWN*    SUNNY     66  57  72 NE5       30.05R
SEVIERVILLE*   SUNNY     59  57  94 CALM      30.05R
KNOXVILLE      PTCLDY    65  62  90 CALM      30.04R
LAFOLLETTE*    SUNNY     61  61 100 CALM      30.09S FOG
OAK RIDGE      MOCLDY    65  62  90 CALM      30.06S
CROSSVILLE     CLEAR     60  58  92 CALM      30.08S FOG
NASHVILLE      PTCLDY    67  65  93 CALM      30.02R
$$

...KEY TO REMARKS...
VSB - VISIBILITY IN MILES
WCI - WIND CHILL INDEX
HX  - HEAT INDEX

$$




USA.gov is the U.S. government's official web portal to all federal, state and local government web resources and services.